[[{"header":{"parameterUnit":"m.s-1","parameterCategory":1,"la1":30.2991,"la2":30.254,"lo1":-89.0895,"lo2":-89.0444,"dy":0.0017,"dx":0.0017,"nx":28,"ny":28,"refTime":"2025-11-12T03:00:00:Z","depth":0,"parameterNumber":2,"parameterNumberName":"U-component_of_WINDS"},"data":[0,0,0,0,0,0,0,0,0,0,0,0,0,0,0,0,0,0,0,0,0,0,0,0,0,0,0,0,0,0,0,0,0,0,0,0,0,0,0,0,0,0,0,0,0,0,0,0,0,0,0,0,0,0,0,0,0,0,2.224,2.224,0,2.2199,2.2199,2.2198,2.2128,2.2127,2.2125,2.2124,2.2082,2.2082,2.2082,0,0,0,0,0,0,0,0,0,0,0,0,0,2.2257,2.2257,2.224,2.224,2.2239,2.2199,2.2199,2.2198,2.2128,2.2127,2.2125,2.2124,2.2082,2.2082,2.2082,0,0,0,0,0,0,0,0,0,0,0,0,0,2.2236,2.2257,2.224,2.22,2.2195,2.2199,2.2199,2.2198,2.2129,2.2127,2.2125,2.2123,2.2082,2.2082,2.2082,2.2123,0,0,2.2083,2.2083,0,0,0,0,0,0,0,0,2.2237,2.2236,2.2206,2.2202,2.2198,2.2167,2.2189,2.2173,2.2129,2.2154,2.2124,2.2122,2.2112,2.211,2.2106,2.2121,2.2119,2.2083,2.2083,2.2083,2.2083,0,0,0,0,0,0,0,2.2239,2.2237,2.2224,2.2206,2.2201,2.2183,2.2178,2.2186,2.2145,2.2152,2.2147,2.2143,2.2109,2.2106,2.2105,2.2118,2.2083,2.2083,2.2083,2.2083,2.2161,2.2162,0,0,0,0,0,0,2.2246,2.2239,2.2225,2.2223,2.2213,2.2184,2.2178,2.2179,2.2144,2.2137,2.2144,2.214,2.2107,2.2105,2.2103,2.2145,2.2083,2.2083,2.2083,2.2159,2.2161,2.2163,0,0,0,0,0,0,2.2247,2.2246,2.2227,2.2229,2.2225,2.2186,2.2187,2.2179,2.2176,2.2139,2.2131,2.2149,2.2105,2.2103,2.2118,2.2142,2.2083,2.2083,2.2156,2.2159,2.2162,2.2231,0,0,0,0,0,0,2.2248,2.2247,2.2262,2.223,2.2226,2.2243,2.2188,2.218,2.2176,2.2169,2.2141,2.2134,2.2103,2.2118,2.2118,2.2141,2.2084,2.2154,2.2158,2.2161,2.2226,2.2236,2.2244,0,0,0,0,0,2.2249,2.2284,2.2263,2.2262,2.2244,2.2244,2.2242,2.2206,2.2179,2.2193,2.2169,2.2135,2.2141,2.212,2.2119,2.2144,2.2152,2.2157,2.2161,2.2222,2.2234,2.2244,0,0,0,0,0,0,2.232,2.2279,2.2255,2.2281,2.2267,2.2233,2.225,2.222,2.2213,2.2207,2.2163,2.2157,2.2177,2.2162,2.214,2.2179,2.2141,2.2145,2.2187,2.2198,2.2207,2.2209,2.2084,0,0,0,0,0,2.2338,2.2343,2.2307,2.2333,2.2327,2.229,2.2289,2.2262,2.2245,2.2239,2.2216,2.2201,2.2199,2.2198,2.2195,2.2225,2.2216,2.2241,2.225,2.2257,2.2261,2.2272,2.2282,2.2178,2.2178,2.2177,0,0,2.2377,2.2355,2.236,2.2346,2.2332,2.2336,2.2285,2.2292,2.2294,2.224,2.2251,2.2235,2.2215,2.2236,2.2245,2.2224,2.2288,2.2263,2.2269,2.2268,2.2278,2.2288,2.2296,2.2181,2.218,2.218,0,0,2.2448,2.2434,2.2452,2.2438,2.2417,2.2392,2.2397,2.2367,2.2353,2.2364,2.2322,2.2325,2.2323,2.2309,2.2302,2.2367,2.2335,2.2368,2.2413,2.2425,2.2433,2.244,2.246,2.2468,2.2372,2.2372,2.2372,0,2.2498,2.2503,2.2465,2.2474,2.2468,2.2419,2.2436,2.2425,2.2404,2.2401,2.2379,2.2374,2.2357,2.2373,2.2389,2.2386,2.2388,2.2369,2.2435,2.2442,2.2448,2.2466,2.2474,2.2376,2.2376,2.2375,2.2375,0,2.2564,2.2568,2.2586,2.2565,2.2562,2.2575,2.2538,2.2539,2.2513,2.249,2.2501,2.248,2.2469,2.2472,2.2447,2.2484,2.2471,2.2443,2.2403,2.2462,2.2478,2.2485,2.2382,2.238,2.2379,2.2378,0,0,2.2677,2.2635,2.2642,2.2631,2.2604,2.2606,2.2617,2.2606,2.2606,2.2594,2.2599,2.2599,2.2571,2.2564,2.2537,2.2548,2.2596,2.2518,2.2516,2.253,2.2632,2.2651,2.266,2.2576,2.2577,2.2578,2.2632,0,2.274,2.2755,2.2721,2.2744,2.2746,2.2699,2.2708,2.2692,2.2671,2.2669,2.2646,2.2644,2.2611,2.2605,2.2614,2.2589,2.2616,2.2585,2.2579,2.2579,2.2582,2.2669,2.2689,2.2741,2.2639,2.264,2.2641,0,2.2815,2.2805,2.2828,2.2797,2.2796,2.2805,2.2791,2.2791,2.2771,2.2755,2.2745,2.2714,2.2721,2.2685,2.2692,2.2672,2.2667,2.2655,2.2656,2.2651,2.2611,2.2663,2.2757,2.2764,2.2651,2.265,2.2649,0,2.2891,2.2883,2.2895,2.2888,2.2853,2.286,2.2846,2.2824,2.2819,2.2807,2.2803,2.2793,2.2787,2.2779,2.2745,2.2723,2.2755,2.2717,2.274,2.2741,2.2747,2.2746,2.2838,2.275,2.275,2.275,2.275,0,2.2962,2.2978,2.2928,2.2935,2.295,2.2911,2.2927,2.2908,2.2889,2.289,2.2851,2.2853,2.281,2.2807,2.2781,2.2789,2.2787,2.2773,2.2765,2.2774,2.2776,2.2769,2.2763,2.2752,2.2751,2.2751,2.2751,0,2.3048,2.3016,2.3026,2.2992,2.2984,2.2996,2.2966,2.2971,2.2948,2.295,2.2948,2.2912,2.2906,2.2872,2.2859,2.2841,2.2858,2.2845,2.2864,2.2858,2.2882,2.2879,2.2969,2.2978,2.2888,2.2889,2.289,0,2.3094,2.3104,2.3072,2.307,2.3057,2.3055,2.3049,2.3012,2.3007,2.2984,2.2991,2.2982,2.2973,2.2966,2.2937,2.2927,2.2911,2.2943,2.2909,2.2917,2.2907,2.2905,2.2905,2.295,2.2951,2.2952,2.2953,0,2.3178,2.3162,2.3155,2.3143,2.3137,2.3126,2.3112,2.3113,2.3071,2.3068,2.3061,2.3054,2.304,2.3031,2.3015,2.2999,2.2968,2.2964,2.2968,2.2976,2.2986,2.2977,2.288,2.2962,2.2961,2.296,2.296,2.2959,2.3243,2.3249,2.3226,2.3219,2.3205,2.3193,2.3194,2.3171,2.3165,2.315,2.3128,2.3124,2.3102,2.3078,2.3065,2.306,2.3042,2.3049,2.305,2.3052,2.3055,2.2989,2.3057,2.3057,2.3057,2.3057,2.3056,0,2.3322,2.3305,2.3299,2.328,2.3275,2.3248,2.323,2.3227,2.3224,2.3207,2.3198,2.3189,2.318,2.3151,2.3138,2.314,2.3125,2.3137,2.3135,2.3131,2.3073,2.3069,2.3149,2.3149,2.3149,2.3149,2.3149,2.3149,2.3362,2.3369,2.335,2.3349,2.3332,2.3327,2.3319,2.3307,2.3292,2.3284,2.3276,2.3257,2.3234,2.3219,2.3209,2.32,2.3196,2.3213,2.3199,2.3145,2.3136,2.3127,2.3123,2.3213,2.3213,2.3257,2.3257,2.3258]},{"header":{"parameterUnit":"m.s-1","parameterCategory":1,"la1":30.2991,"la2":30.254,"lo1":-89.0895,"lo2":-89.0444,"dy":0.0017,"dx":0.0017,"nx":28,"ny":28,"refTime":"2025-11-12T03:00:00:Z","depth":0,"parameterNumber":3,"parameterNumberName":"V-component_of_WINDS"},"data":[0,0,0,0,0,0,0,0,0,0,0,0,0,0,0,0,0,0,0,0,0,0,0,0,0,0,0,0,0,0,0,0,0,0,0,0,0,0,0,0,0,0,0,0,0,0,0,0,0,0,0,0,0,0,0,0,0,0,3.0566,3.0564,0,3.0464,3.0463,3.0462,3.0381,3.038,3.0379,3.0378,3.0267,3.0265,3.0263,0,0,0,0,0,0,0,0,0,0,0,0,0,3.0683,3.0681,3.0566,3.0564,3.0563,3.0464,3.0463,3.0461,3.0381,3.038,3.0379,3.0378,3.0268,3.0266,3.0263,0,0,0,0,0,0,0,0,0,0,0,0,0,3.0612,3.0681,3.0566,3.0511,3.0505,3.0465,3.0463,3.0461,3.0381,3.038,3.0379,3.0378,3.0269,3.0266,3.0263,3.0266,0,0,3.0252,3.0251,0,0,0,0,0,0,0,0,3.0616,3.0607,3.052,3.0515,3.0508,3.0434,3.0463,3.0395,3.0381,3.0428,3.0378,3.0377,3.0323,3.0315,3.0299,3.0261,3.0256,3.0252,3.025,3.0249,3.0248,0,0,0,0,0,0,0,3.0621,3.0611,3.0525,3.0519,3.0512,3.0489,3.0478,3.045,3.0383,3.0424,3.0418,3.0407,3.032,3.0302,3.0296,3.0254,3.0252,3.0249,3.0247,3.0246,3.0211,3.0212,0,0,0,0,0,0,3.0635,3.0616,3.0528,3.0522,3.056,3.0488,3.0475,3.0459,3.0383,3.0371,3.0408,3.0404,3.0309,3.03,3.0291,3.0288,3.0249,3.0246,3.0244,3.021,3.0211,3.0212,0,0,0,0,0,0,3.0638,3.0628,3.0532,3.0567,3.0554,3.0488,3.0469,3.0457,3.044,3.0372,3.0359,3.0403,3.0307,3.0296,3.0273,3.0283,3.0244,3.0241,3.0209,3.021,3.0212,3.0284,0,0,0,0,0,0,3.0642,3.063,3.0632,3.0568,3.0552,3.0518,3.047,3.0456,3.0435,3.0428,3.0364,3.0352,3.0305,3.0278,3.0269,3.0278,3.0238,3.0207,3.0209,3.0211,3.028,3.0288,3.0294,0,0,0,0,0,3.0646,3.0655,3.0632,3.0622,3.0554,3.0519,3.0509,3.0458,3.0437,3.0437,3.0393,3.0354,3.0284,3.0276,3.0266,3.0274,3.0206,3.0209,3.0211,3.0277,3.0286,3.0294,0,0,0,0,0,0,3.072,3.0646,3.062,3.0609,3.0571,3.0505,3.0504,3.047,3.0435,3.043,3.0366,3.0352,3.0335,3.0302,3.0295,3.0272,3.024,3.024,3.0294,3.0302,3.0309,3.0316,3.0236,0,0,0,0,0,3.0735,3.0715,3.0651,3.0647,3.063,3.0571,3.0554,3.0518,3.0475,3.0457,3.0412,3.037,3.0338,3.0318,3.0286,3.0276,3.0258,3.0276,3.0283,3.0289,3.0289,3.0279,3.0285,3.022,3.022,3.022,0,0,3.0766,3.0723,3.0714,3.0661,3.0627,3.0606,3.0558,3.0537,3.0519,3.0453,3.0429,3.0394,3.0342,3.0325,3.0315,3.0297,3.0303,3.0292,3.0297,3.0294,3.0282,3.0288,3.0293,3.0222,3.0221,3.0221,0,0,3.081,3.0777,3.077,3.0738,3.0688,3.0649,3.0647,3.0586,3.0561,3.0536,3.0486,3.0463,3.041,3.0375,3.035,3.0382,3.0343,3.0373,3.0408,3.0399,3.0404,3.0408,3.0417,3.0421,3.0374,3.0374,3.0374,0,3.0854,3.0822,3.077,3.0752,3.0729,3.0671,3.0661,3.0632,3.0573,3.0558,3.0539,3.0472,3.0433,3.0406,3.0414,3.0396,3.039,3.0379,3.0408,3.0412,3.0415,3.0422,3.0426,3.0378,3.0377,3.0377,3.0376,0,3.0876,3.0855,3.0854,3.0801,3.0778,3.0765,3.0709,3.0691,3.0658,3.0619,3.0593,3.0545,3.0501,3.0492,3.0458,3.0459,3.0449,3.0421,3.0387,3.0425,3.0431,3.0434,3.0383,3.0382,3.0381,3.038,0,0,3.0963,3.0882,3.0883,3.0857,3.0798,3.0779,3.0762,3.0721,3.0706,3.0668,3.065,3.0607,3.058,3.0552,3.0513,3.0506,3.053,3.0477,3.0475,3.0486,3.0526,3.0546,3.0551,3.0505,3.0506,3.0506,3.0529,0,3.0996,3.0964,3.0917,3.09,3.0878,3.0822,3.0807,3.0768,3.0732,3.0705,3.0664,3.0634,3.0602,3.0584,3.0575,3.053,3.0537,3.0528,3.0485,3.0484,3.0497,3.0554,3.0576,3.06,3.0531,3.0532,3.0532,0,3.103,3.0997,3.0978,3.092,3.0909,3.0896,3.0854,3.0831,3.0784,3.0758,3.0727,3.0686,3.0662,3.0634,3.0598,3.0593,3.0573,3.0548,3.0548,3.054,3.0509,3.0545,3.0606,3.0609,3.0535,3.0535,3.0535,0,3.1092,3.1042,3.1024,3.1004,3.0937,3.0929,3.09,3.0853,3.0831,3.0793,3.0777,3.0737,3.0714,3.0683,3.063,3.0615,3.06,3.0567,3.0575,3.0576,3.0572,3.0572,3.0629,3.0563,3.0563,3.0563,3.0563,0,3.1133,3.1122,3.1051,3.104,3.1026,3.0971,3.0958,3.0924,3.0882,3.0861,3.0811,3.0791,3.0725,3.0697,3.0656,3.0631,3.0622,3.0598,3.0586,3.0601,3.0604,3.0585,3.0581,3.0564,3.0564,3.0564,3.0564,0,3.1198,3.1151,3.1127,3.1066,3.105,3.1042,3.0988,3.0973,3.0935,3.0909,3.0899,3.0838,3.0802,3.0748,3.0696,3.0668,3.0649,3.0632,3.0665,3.0658,3.0668,3.0667,3.0712,3.0714,3.065,3.0651,3.0652,0,3.1226,3.1218,3.1156,3.1139,3.1113,3.1087,3.1064,3.101,3.0988,3.0934,3.0925,3.0887,3.0852,3.0798,3.0746,3.0706,3.0686,3.0704,3.0679,3.0693,3.0683,3.0683,3.068,3.0709,3.071,3.0711,3.0712,0,3.128,3.1257,3.1228,3.119,3.1166,3.1133,3.1098,3.1086,3.1023,3.1001,3.0965,3.0939,3.0887,3.0847,3.08,3.0766,3.0727,3.0721,3.072,3.0733,3.0752,3.0739,3.0679,3.0719,3.0719,3.0718,3.0718,3.0717,3.1325,3.1315,3.1269,3.1238,3.1207,3.1175,3.1158,3.1118,3.1088,3.1042,3.1012,3.0977,3.0929,3.0861,3.083,3.08,3.0784,3.0783,3.0782,3.0782,3.0787,3.0759,3.0792,3.0791,3.0791,3.0791,3.0791,0,3.1374,3.1343,3.1315,3.1268,3.1243,3.1212,3.1171,3.1151,3.1123,3.1083,3.1051,3.1008,3.097,3.0917,3.0874,3.086,3.0841,3.085,3.0849,3.0842,3.0805,3.0809,3.0866,3.0866,3.0866,3.0866,3.0866,3.0866,3.1397,3.1376,3.1348,3.131,3.1277,3.1245,3.1224,3.1193,3.1161,3.1117,3.1086,3.1053,3.1006,3.0959,3.0922,3.0907,3.0892,3.0907,3.0886,3.0852,3.0845,3.0838,3.0841,3.0904,3.0905,3.0924,3.0925,3.0925]}]]